[TLELIST] Archives

 

[TLELIST] Current TLEs

March 5th 2023 PDT

HST 1 20580U 90037B 23063.90486382 .00007270 00000-0 39996-3 0 9993 2 20580 28.4683 241.3887 0002500 344.1557 133.8005 15.12178946605912 ISS (ZARYA) 1 25544U 98067A 23064.32835543 .00022325 00000-0 40214-3 0 9996 2 25544 51.6409 122.9953 0005817 57.7649 44.1757 15.49696561385687 CXO 1 25867U 99040B 23064.83748970 .00001040 00000-0 00000-0 0 9996 2 25867 38.9307 209.6482 9023415 252.1369 0.4261 0.37812614 12797 ...Continue Reading

[TLELIST] Current TLEs

March 4th 2023 PDT

HST 1 20580U 90037B 23062.83126970 .00006422 00000-0 35228-3 0 9990 2 20580 28.4684 248.5203 0002430 332.6479 49.2452 15.12162790605490 ISS (ZARYA) 1 25544U 98067A 23063.49497122 .00021946 00000-0 39601-3 0 9996 2 25544 51.6412 127.1216 0005923 54.3301 75.2192 15.49657509385559 CXO 1 25867U 99040B 23064.83748970 .00001040 00000-0 00000-0 0 9996 2 25867 38.9307 209.6482 9023415 252.1369 0.4261 0.37812614 12797 ...Continue Reading

[TLELIST] Current TLEs

March 3rd 2023 PDT

HST 1 20580U 90037B 23061.78404521 .00005363 00000-0 29263-3 0 9999 2 20580 28.4685 255.4768 0002366 320.9877 108.7367 15.12148640605331 ISS (ZARYA) 1 25544U 98067A 23062.53026366 .00019618 00000-0 35558-3 0 9998 2 25544 51.6396 131.9005 0006043 47.9989 96.1739 15.49607045385406 CXO 1 25867U 99040B 23064.83748970 .00001040 00000-0 00000+0 0 9995 2 25867 38.9307 209.6482 9023415 252.1369 0.4261 0.37812614 23946 ...Continue Reading

[TLELIST] Current TLEs

March 3rd 2023 PDT

HST 1 20580U 90037B 23061.78404521 .00005363 00000-0 29263-3 0 9999 2 20580 28.4685 255.4768 0002366 320.9877 108.7367 15.12148640605331 ISS (ZARYA) 1 25544U 98067A 23062.53026366 .00019618 00000-0 35558-3 0 9998 2 25544 51.6396 131.9005 0006043 47.9989 96.1739 15.49607045385406 CXO 1 25867U 99040B 23064.83748970 .00001040 00000-0 00000+0 0 9995 2 25867 38.9307 209.6482 9023415 252.1369 0.4261 0.37812614 23946 ...Continue Reading

[TLELIST] Current TLEs

March 2nd 2023 PDT

HST 1 20580U 90037B 23060.93877550 .00005285 00000-0 28826-3 0 9998 2 20580 28.4687 261.0912 0002295 310.9243 188.2454 15.12139138605202 ISS (ZARYA) 1 25544U 98067A 23061.23196975 .00026950 00000-0 48563-3 0 9995 2 25544 51.6403 138.3257 0006133 41.7532 55.1306 15.49569302385207 CXO 1 25867U 99040B 23059.54655648 .00000782 00000-0 00000-0 0 9999 2 25867 39.0220 210.2637 9021766 251.6344 0.2003 0.37809191 12773 ...Continue Reading

[TLELIST] Current TLEs

March 1st 2023 PDT

HST 1 20580U 90037B 23059.87284911 .00005854 00000-0 32055-3 0 9993 2 20580 28.4690 268.1713 0002250 298.1621 146.9113 15.12126904605043 ISS (ZARYA) 1 25544U 98067A 23060.20169737 .00031645 00000-0 56934-3 0 9995 2 25544 51.6397 143.4285 0005961 40.9898 64.9091 15.49527717385046 CXO 1 25867U 99040B 23059.54655648 .00000782 00000-0 00000-0 0 9999 2 25867 39.0220 210.2637 9021766 251.6344 0.2003 0.37809191 12773 ...Continue Reading

[TLELIST] Current TLEs

February 28th 2023 PDT

HST 1 20580U 90037B 23059.29214457 .00007391 00000-0 40743-3 0 9998 2 20580 28.4688 272.0287 0002212 289.5476 228.0966 15.12122884605221 ISS (ZARYA) 1 25544U 98067A 23059.42649794 .00020820 00000-0 37893-3 0 9999 2 25544 51.6397 147.2641 0005146 32.2811 66.5136 15.49451328384926 CXO 1 25867U 99040B 23059.54655648 .00000782 00000-0 00000-0 0 9999 2 25867 39.0220 210.2637 9021766 251.6344 0.2003 0.37809191 12773 ...Continue Reading

[TLELIST] Current TLEs

February 28th 2023 PDT

HST 1 20580U 90037B 23059.29214457 .00007391 00000-0 40743-3 0 9998 2 20580 28.4688 272.0287 0002212 289.5476 228.0966 15.12122884605221 ISS (ZARYA) 1 25544U 98067A 23059.42649794 .00020820 00000-0 37893-3 0 9999 2 25544 51.6397 147.2641 0005146 32.2811 66.5136 15.49451328384926 CXO 1 25867U 99040B 23059.54655648 .00000782 00000-0 00000-0 0 9999 2 25867 39.0220 210.2637 9021766 251.6344 0.2003 0.37809191 12773 ...Continue Reading

[TLELIST] Current TLEs

February 28th 2023 PDT

HST 1 20580U 90037B 23059.29214457 .00007391 00000-0 40743-3 0 9998 2 20580 28.4688 272.0287 0002212 289.5476 228.0966 15.12122884605221 ISS (ZARYA) 1 25544U 98067A 23059.42649794 .00020820 00000-0 37893-3 0 9999 2 25544 51.6397 147.2641 0005146 32.2811 66.5136 15.49451328384926 CXO 1 25867U 99040B 23059.54655648 .00000782 00000-0 00000-0 0 9999 2 25867 39.0220 210.2637 9021766 251.6344 0.2003 0.37809191 12773 ...Continue Reading

[TLELIST] Current TLEs

February 27th 2023 PDT

HST 1 20580U 90037B 23057.89160873 .00005109 00000-0 27865-3 0 9999 2 20580 28.4692 281.3310 0002189 271.7928 166.7402 15.12101971604747 ISS (ZARYA) 1 25544U 98067A 23058.33153021 .00017222 00000-0 31564-3 0 9992 2 25544 51.6390 152.6823 0005553 33.7359 73.3155 15.49389973384750 CXO 1 25867U 99040B 23056.90394271 .00000669 00000-0 00000+0 0 9991 2 25867 39.0724 210.5931 9019913 251.3645 0.4870 0.37809176 23919 ...Continue Reading
  • This mailing list is a public mailing list - anyone may join or leave, at any time.
  • This mailing list is announce-only.

International Space Station (ISS) / Hubble Space Telescope (HST) / Chandra X-Ray Observatory Orbital Data via EMAIL

Privacy Policy:

Private list